#timestamp,LO_Frequency,Hit,StdDev 
1649919615.2,286047002.1,N
1649919635.1,286046999.7,N
1649919636.0,286046999.7,N
1649919655.8,286047000.0,N
1649919675.7,286047002.0,N
1649919695.5,286047002.8,N
1649919715.3,286047002.8,N
1649919735.2,286046999.7,N
1649919755.0,286047002.5,N
1649919755.9,286047002.5,N
1649919775.8,286047002.0,N
1649919795.6,286047002.4,N
1649919815.4,286047002.1,N
1649919835.3,286047000.3,N
1649919855.1,286046999.7,N
1649919856.0,286046999.7,N
1649919875.9,286046999.6,N
1649919895.7,286046998.3,N
1649919915.5,286046999.2,N
1649919935.4,286046998.9,N
1649919955.2,286046997.1,N
1649919975.0,286047001.2,N
1649919975.9,286047001.2,N
1649919995.8,286047000.0,N
1649920015.6,286047000.8,N
1649920035.5,286046998.7,N
1649920055.3,286046998.8,N
1649920075.1,286047001.0,N
1649920095.9,286047000.6,N
1649920115.7,286046998.7,N
1649920135.5,286046996.5,N
1649920155.4,286046999.8,N
1649920175.2,286047000.2,N
1649920195.1,286047000.0,N
1649920196.0,286047000.0,N
1649920215.8,286047000.7,N
1649920235.6,286047001.1,N
1649920255.5,286047000.5,N
1649920275.3,286046999.8,N
1649920295.1,286047000.4,N
1649920315.9,286047002.4,N
1649920335.7,286047000.5,N
1649920355.6,286047000.2,N
1649920375.4,286047000.0,N
1649920395.2,286046999.9,N
1649920415.1,286047000.2,N
1649920416.0,286047000.2,N
1649920435.8,286047000.2,N
1649920455.6,286047002.8,N
1649920475.5,286047002.6,N
1649920495.3,286047004.0,Y
1649920515.2,286047004.2,P
1649920535.9,286047001.5,N
1649920555.7,286047002.4,N
1649920575.6,286046998.2,N
1649920595.4,286046998.1,N
1649920615.2,286047000.8,N
1649920635.1,286046999.7,N
1649920636.0,286046999.7,N
1649920655.8,286046998.6,N
1649920675.7,286047001.0,N
1649920695.5,286047000.8,N
1649920715.3,286046998.3,N
1649920735.2,286046998.9,N
1649920755.0,286046999.3,N
1649920755.9,286046999.3,N
1649920775.8,286046998.9,N
1649920795.6,286047000.0,N
1649920815.4,286047002.8,N
1649920835.3,286047001.5,N
1649920855.1,286047002.2,N
1649920875.8,286046999.7,N
1649920895.7,286047001.0,N
1649920945.5,286047005.8,E
1649920955.5,286047002.8,N
1649920975.3,286046997.6,P
1649920995.1,286046995.7,N
1649921015.9,286046992.4,N
1649921035.7,286046992.0,N
1649921055.6,286046994.1,N
1649921075.4,286046992.0,N
1649921095.2,286046998.0,N
1649921115.1,286046995.5,N
1649921116.0,286046995.5,N
1649921135.8,286046993.6,N
1649921155.6,286046994.8,N
1649921175.5,286046994.5,N
1649921195.3,286046993.5,N
1649921215.2,286046993.6,N
1649921235.9,286046996.4,N
1649921255.7,286046995.9,N
1649921275.6,286046995.6,N
1649921295.4,286046993.8,N
1649921315.3,286046994.1,N
1649921335.1,286046994.0,N
1649921336.0,286046994.0,N
1649921355.8,286046994.0,N
1649921375.7,286046992.3,Y
1649921395.5,286046998.7,P
1649921415.4,286047000.7,N
1649921435.2,286047000.9,N
1649921455.0,286047000.6,N
1649921455.9,286047000.6,N
1649921475.8,286047000.0,N
1649921495.6,286047000.4,N
1649921515.4,286047002.8,N
1649921535.3,286046999.9,N
1649921555.1,286047000.1,N
1649921575.9,286047000.1,N
1649921595.7,286047000.2,N
1649921615.5,286047001.1,N
1649921635.4,286046998.1,N
1649921655.2,286046998.2,N
1649921675.1,286047001.0,N
1649921676.0,286047001.0,N
1649921695.8,286047002.4,N
1649921715.6,286047002.4,N
1649921735.5,286047000.0,N
1649921755.3,286047000.9,N
1649921775.1,286047000.6,N
1649921795.9,286046998.5,N
1649921815.7,286047001.1,N
1649921835.6,286047002.4,N
1649921855.4,286046998.1,N
1649921875.2,286046999.4,N
1649921895.1,286046998.4,N
1649921896.0,286046998.4,N
1649921915.8,286047000.8,N
1649921935.6,286047000.7,N
1649921955.5,286047000.0,N
1649921975.3,286046999.7,N
1649921995.2,286046999.7,N
1649922015.0,286047000.3,N
1649922015.9,286047000.3,N
1649922035.8,286046998.3,N
1649922055.6,286047000.7,N
1649922075.4,286046999.9,N
1649922095.3,286047002.4,N
1649922115.1,286046999.9,N
1649922135.9,286047000.2,N
1649922155.7,286047002.8,N
1649922175.5,286047001.1,N
1649922195.4,286047000.5,N
1649922215.2,286047001.2,N
1649922235.1,286046996.6,N
1649922236.0,286046996.6,N
1649922255.8,286046998.9,N
1649922275.6,286046999.0,N
1649922295.5,286046999.6,N
1649922315.3,286046998.2,N
1649922335.1,286047002.4,N
1649922355.9,286046997.0,N
1649922375.7,286046997.8,N
1649922395.6,286046996.5,N
1649922415.4,286046995.3,N
1649922435.2,286046996.8,N
1649922455.1,286046996.9,N
1649922456.0,286046996.9,N
1649922475.8,286046995.4,N
1649922495.7,286046994.2,N
1649922515.5,286046994.5,N
1649922535.3,286046994.6,N
1649922555.2,286046998.0,N
1649922575.0,286046997.4,N
1649922575.9,286046997.4,N
1649922595.7,286046997.3,N
1649922615.6,286046996.2,N
1649922635.4,286046994.9,N
1649922655.3,286046999.5,N
1649922675.1,286047000.7,N
1649922695.8,286046999.5,N
1649922715.7,286046998.4,N
1649922735.5,286047001.2,N
1649922755.4,286046999.9,N
1649922775.2,286046998.9,N
1649922795.1,286046997.3,N
1649922796.0,286046997.3,N
1649922815.8,286046995.0,N
1649922835.6,286046999.5,N
1649922855.5,286046997.5,N
1649922875.3,286046997.2,N
1649922895.2,286046994.9,N
1649922915.9,286046999.3,N
1649922935.7,286047001.2,N
1649922955.6,286046999.8,N
1649922975.4,286047002.7,N
1649922995.2,286047000.3,N
1649923015.1,286047000.9,N
1649923016.0,286047000.9,N
1649923035.8,286046998.5,N
1649923055.7,286046999.9,N
1649923075.5,286047001.0,N
1649923095.3,286047001.2,N
1649923115.2,286046998.8,N
1649923135.0,286046997.7,N
1649923135.9,286046997.7,N
1649923155.8,286046995.2,N
1649923175.6,286046997.2,N
1649923195.4,286046999.5,N
